• En España
  • Lista de países
  • Para 7 días
  • Temperatura del agua
  • Mapa Satelital
  • El tiempo en el mapa
  • Informadores
  • user-avatar
    Iniciar sesión

    Tiempo cada hora Krasnyy Bereg

    Hoy, 19 Octubre, Viernes

    Tiempo Temperatura Precipitaciones Viento Presión Humedad
    00:00 +2°C° 0.2 mm 3 mps 742 mmHg 91%
    01:00 +2°C° 0.2 mm 3 mps 741 mmHg 92%
    02:00 +2°C° 0.1 mm 3 mps 741 mmHg 93%
    03:00 +2°C° 0.1 mm 3 mps 741 mmHg 95%
    04:00 +3°C° 0 mm 2 mps 740 mmHg 96%
    05:00 +3°C° 0.1 mm 2 mps 740 mmHg 97%
    06:00 +4°C° 0.1 mm 2 mps 740 mmHg 97%
    07:00 +5°C° 0.1 mm 1 mps 740 mmHg 98%
    08:00 +5°C° 0.1 mm 2 mps 739 mmHg 98%
    09:00 +5°C° 0.1 mm 2 mps 739 mmHg 98%
    10:00 +6°C° 0.1 mm 2 mps 739 mmHg 98%
    11:00 +7°C° 0.1 mm 2 mps 739 mmHg 97%
    12:00 +7°C° 0.1 mm 2 mps 739 mmHg 96%
    13:00 +8°C° 0.1 mm 2 mps 739 mmHg 96%
    14:00 +8°C° 0.3 mm 3 mps 738 mmHg 95%
    15:00 +7°C° 0.3 mm 4 mps 738 mmHg 95%
    16:00 +7°C° 0.3 mm 4 mps 737 mmHg 94%
    17:00 +7°C° 0.6 mm 4 mps 737 mmHg 94%
    18:00 +7°C° 0.6 mm 4 mps 737 mmHg 94%
    19:00 +7°C° 0.6 mm 5 mps 736 mmHg 94%
    20:00 +7°C° 0.6 mm 4 mps 736 mmHg 93%
    21:00 +7°C° 0.6 mm 4 mps 736 mmHg 93%
    22:00 +7°C° 0.6 mm 4 mps 736 mmHg 92%
    23:00 +6°C° 0.1 mm 4 mps 736 mmHg 92%

    Mañana, 20 Octubre, Sábado

    Tiempo Temperatura Precipitaciones Viento Presión Humedad
    00:00 +6°C° 0.1 mm 4 mps 736 mmHg 92%
    01:00 +5°C° 0.1 mm 4 mps 736 mmHg 93%
    02:00 +5°C° 0 mm 4 mps 736 mmHg 92%
    03:00 +4°C° 0 mm 4 mps 736 mmHg 90%
    04:00 +3°C° 0 mm 5 mps 736 mmHg 89%
    05:00 +3°C° 0.1 mm 5 mps 736 mmHg 88%
    06:00 +3°C° 0.1 mm 5 mps 736 mmHg 87%
    07:00 +2°C° 0.1 mm 5 mps 736 mmHg 86%
    08:00 +2°C° 0.1 mm 5 mps 736 mmHg 85%
    09:00 +2°C° 0.1 mm 5 mps 736 mmHg 85%
    10:00 +2°C° 0.1 mm 5 mps 736 mmHg 84%
    11:00 +2°C° 0.2 mm 5 mps 737 mmHg 84%
    12:00 +2°C° 0.2 mm 5 mps 737 mmHg 84%
    13:00 +2°C° 0.2 mm 5 mps 737 mmHg 84%
    14:00 +2°C° 0.3 mm 5 mps 737 mmHg 84%
    15:00 +3°C° 0.3 mm 4 mps 738 mmHg 83%
    16:00 +3°C° 0.3 mm 4 mps 738 mmHg 83%
    17:00 +1°C° 0.2 mm 4 mps 739 mmHg 84%
    18:00 +1°C° 0.2 mm 4 mps 739 mmHg 85%
    19:00 +2°C° 0.2 mm 3 mps 739 mmHg 85%
    20:00 +1°C° 0 mm 3 mps 740 mmHg 86%
    21:00 +1°C° 0 mm 3 mps 740 mmHg 87%
    22:00 +1°C° 0 mm 3 mps 741 mmHg 87%
    23:00 +1°C° 0 mm 3 mps 741 mmHg 87%

    Pasado mañana, 21 Octubre, Domingo

    Tiempo Temperatura Precipitaciones Viento Presión Humedad
    00:00 0°C° 0 mm 3 mps 742 mmHg 86%
    01:00 0°C° 0 mm 3 mps 742 mmHg 86%
    02:00 0°C° 0 mm 3 mps 743 mmHg 85%
    03:00 -1°C° 0 mm 3 mps 743 mmHg 85%
    04:00 -1°C° 0 mm 3 mps 743 mmHg 84%
    05:00 -1°C° 0 mm 3 mps 744 mmHg 84%
    06:00 -1°C° 0 mm 3 mps 744 mmHg 85%
    07:00 -1°C° 0 mm 3 mps 745 mmHg 85%
    08:00 -1°C° 0 mm 3 mps 746 mmHg 83%
    09:00 -1°C° 0 mm 3 mps 746 mmHg 81%
    10:00 -1°C° 0 mm 3 mps 746 mmHg 80%
    11:00 0°C° 0 mm 3 mps 747 mmHg 78%
    12:00 0°C° 0 mm 3 mps 748 mmHg 76%
    13:00 0°C° 0 mm 3 mps 748 mmHg 75%
    14:00 0°C° 0 mm 3 mps 749 mmHg 76%
    15:00 0°C° 0 mm 3 mps 749 mmHg 77%
    16:00 -1°C° 0 mm 3 mps 749 mmHg 78%
    17:00 -1°C° 0 mm 3 mps 750 mmHg 80%
    18:00 -1°C° 0 mm 3 mps 751 mmHg 81%
    19:00 -2°C° 0 mm 3 mps 751 mmHg 83%
    20:00 -2°C° 0 mm 3 mps 751 mmHg 83%
    21:00 -2°C° 0 mm 2 mps 752 mmHg 83%
    22:00 -2°C° 0 mm 2 mps 752 mmHg 83%
    23:00 -3°C° 0 mm 2 mps 752 mmHg 86%

    22 Octubre, Lunes

    Tiempo Temperatura Precipitaciones Viento Presión Humedad
    00:00 -4°C° 0 mm 2 mps 753 mmHg 88%
    01:00 -2°C° 0 mm 1 mps 753 mmHg 91%
    02:00 -2°C° 0 mm 1 mps 753 mmHg 92%
    03:00 -2°C° 0 mm 1 mps 754 mmHg 92%
    04:00 -3°C° 0 mm 1 mps 754 mmHg 93%
    05:00 -3°C° 0 mm 1 mps 754 mmHg 92%
    06:00 -3°C° 0 mm 1 mps 754 mmHg 92%
    07:00 -4°C° 0 mm 0 mps 754 mmHg 92%
    08:00 -2°C° 0 mm 1 mps 754 mmHg 86%
    09:00 -1°C° 0 mm 1 mps 754 mmHg 80%
    10:00 0°C° 0 mm 1 mps 755 mmHg 74%
    11:00 +1°C° 0 mm 1 mps 754 mmHg 71%
    12:00 -1°C° 0 mm 2 mps 754 mmHg 69%
    13:00 +1°C° 0 mm 2 mps 754 mmHg 66%
    14:00 +1°C° 0 mm 2 mps 754 mmHg 69%
    15:00 -1°C° 0 mm 2 mps 754 mmHg 72%
    16:00 +1°C° 0 mm 1 mps 753 mmHg 75%
    17:00 -1°C° 0 mm 2 mps 753 mmHg 76%
    18:00 -1°C° 0 mm 2 mps 753 mmHg 77%
    19:00 -2°C° 0 mm 2 mps 753 mmHg 78%
    20:00 -2°C° 0 mm 3 mps 752 mmHg 79%
    21:00 -2°C° 0 mm 3 mps 752 mmHg 79%
    22:00 -2°C° 0 mm 3 mps 752 mmHg 79%
    23:00 -2°C° 0 mm 3 mps 751 mmHg 79%

    23 Octubre, Martes

    Tiempo Temperatura Precipitaciones Viento Presión Humedad
    00:00 -2°C° 0 mm 3 mps 751 mmHg 80%
    01:00 -2°C° 0 mm 3 mps 750 mmHg 80%
    02:00 -3°C° 0 mm 4 mps 750 mmHg 80%
    03:00 -3°C° 0 mm 4 mps 750 mmHg 81%
    04:00 -3°C° 0 mm 4 mps 749 mmHg 81%
    05:00 -3°C° 0 mm 4 mps 749 mmHg 82%
    06:00 -3°C° 0 mm 4 mps 748 mmHg 83%
    07:00 -3°C° 0 mm 4 mps 748 mmHg 84%
    08:00 -2°C° 0 mm 4 mps 748 mmHg 83%
    09:00 -2°C° 0 mm 4 mps 748 mmHg 82%
    10:00 -1°C° 0 mm 4 mps 747 mmHg 81%
    11:00 0°C° 0 mm 4 mps 747 mmHg 80%
    12:00 0°C° 0 mm 4 mps 747 mmHg 80%
    13:00 +1°C° 0 mm 4 mps 747 mmHg 79%
    14:00 +1°C° 0 mm 4 mps 747 mmHg 80%
    15:00 +1°C° 0 mm 4 mps 747 mmHg 82%
    16:00 +2°C° 0 mm 3 mps 747 mmHg 84%
    17:00 +1°C° 0 mm 3 mps 747 mmHg 86%
    18:00 +1°C° 0 mm 3 mps 747 mmHg 88%
    19:00 0°C° 0 mm 3 mps 747 mmHg 90%
    20:00 0°C° 0 mm 3 mps 747 mmHg 91%
    21:00 0°C° 0 mm 3 mps 746 mmHg 91%
    22:00 0°C° 0 mm 3 mps 746 mmHg 92%
    23:00 -1°C° 0.1 mm 4 mps 746 mmHg 92%

    24 Octubre, Miércoles

    Tiempo Temperatura Precipitaciones Viento Presión Humedad
    00:00 0°C° 0.1 mm 4 mps 745 mmHg 91%
    01:00 0°C° 0.1 mm 4 mps 745 mmHg 91%
    02:00 0°C° 0.4 mm 4 mps 745 mmHg 89%
    03:00 0°C° 0.4 mm 4 mps 744 mmHg 87%
    04:00 0°C° 0.4 mm 5 mps 744 mmHg 85%
    05:00 0°C° 0.3 mm 5 mps 743 mmHg 85%
    06:00 -1°C° 0.3 mm 4 mps 743 mmHg 84%
    07:00 -1°C° 0.3 mm 4 mps 743 mmHg 84%
    08:00 -1°C° 0.1 mm 4 mps 742 mmHg 83%
    09:00 0°C° 0.1 mm 4 mps 742 mmHg 81%
    10:00 0°C° 0.1 mm 4 mps 742 mmHg 80%
    11:00 0°C° 0.1 mm 4 mps 742 mmHg 81%
    12:00 +1°C° 0.1 mm 4 mps 742 mmHg 83%
    13:00 +1°C° 0.1 mm 4 mps 742 mmHg 84%
    14:00 +1°C° 0.1 mm 4 mps 742 mmHg 86%
    15:00 +1°C° 0.1 mm 4 mps 741 mmHg 87%
    16:00 +2°C° 0.1 mm 3 mps 741 mmHg 89%
    17:00 +2°C° 0.2 mm 3 mps 741 mmHg 90%
    18:00 +3°C° 0.2 mm 4 mps 741 mmHg 91%
    19:00 +3°C° 0.2 mm 4 mps 740 mmHg 93%
    20:00 +3°C° 0.4 mm 4 mps 740 mmHg 93%
    21:00 +4°C° 0.4 mm 4 mps 740 mmHg 93%
    22:00 +4°C° 0.4 mm 4 mps 739 mmHg 93%
    23:00 +4°C° 0.5 mm 4 mps 739 mmHg 93%
    Mostrar más